User: anonymous   Login
Location: Turtle Rock Observatory
(36.6913°N, 81.9708°W)
Time: 13:14:19
(UTC-05:00)
Language:

Lacrosse 5 rocket - Orbit

View from above orbital plane
View from above orbital plane
View from above satellite
View from above satellite

Ground track
Ground track

The orbit data is extracted from the following two-line orbital elements,

1 28647U 05016B   17019.69667454 0.00000750  00000-0  43708-4 0    05
2 28647  56.9980 258.3336 0128421  61.5998 298.4001 15.04766001    06
Epoch (UTC): 19 January 2017 16:43:12
Eccentricity: 0.0128421
inclination: 56.9980°
perigee height: 463 km
apogee height: 641 km
right ascension of ascending node: 258.3336°
argument of perigee: 61.5998°
revolutions per day: 15.04766001
mean anomaly at epoch: 298.4001°
orbit number at epoch: 0

The dashed part of the orbit path shows where the satellite is in the earth's shadow,  

DLR